sat.trackr.live / text

‹ back to catalog

KUIPER-00035

NORAD 63748 · 2025-088AA

PAYLOAD ACTIVE UNKNOWN

§ Identity

Operator
Country
US
Launch date
2025-04-28
Launch site
AFETR
Launch vehicle
Mass (kg)
RCS (m²)

External: N2YO · Heavens-Above · Gunter

§ Orbital elements

Epoch: 2026-05-25T02:51:29.117664Z

Period
97.30 min
Inclination
51.8992°
Eccentricity
0.0000732
Mean motion
14.79931659 rev/d
Perigee alt
629.0 km
Apogee alt
630.1 km
Semi-major
7,007.7 km
B*
1.1998e-4
RAAN
135.1184°
Arg perigee
27.3870°
Mean anomaly
332.7130°
Rev number
5,884

§ Raw data

KUIPER-000351 63748U 25088AA  26145.11908701  .00000694  00000+0  11998-3 0  99952 63748  51.8992 135.1184 0000732  27.3870 332.7130 14.79931659 58844

JSON: /api/v1/satellites/63748 · /tle

For live sub-satellite position, see the globe view (requires WebGL).

§ Visibility from observer

Set your observer location to see the next 7 days of passes ≥ 10°. The values pass through the URL so the page stays shareable.

No JS? Fill the form by hand. The geolocation button needs JavaScript.